sat.trackr.live / text

‹ back to catalog

STARLINK-37387

NORAD 68973 · 2026-099Y

PAYLOAD ACTIVE UNKNOWN

§ Identity

Operator
Country
US
Launch date
2026-05-01
Launch site
AFETR
Launch vehicle
Mass (kg)
RCS (m²)

Purposes: comms

External: N2YO · Heavens-Above · Gunter

§ Orbital elements

Epoch: 2026-05-25T04:00:03.998880Z

Period
92.94 min
Inclination
53.1587°
Eccentricity
0.0001057
Mean motion
15.49325810 rev/d
Perigee alt
418.0 km
Apogee alt
419.4 km
Semi-major
6,796.8 km
B*
-6.2703e-5
RAAN
270.8307°
Arg perigee
111.2230°
Mean anomaly
166.7957°
Rev number
496

§ Raw data

STARLINK-373871 68973U 26099Y   26145.16671295 -.00003936  00000+0 -62703-4 0  99982 68973  53.1587 270.8307 0001057 111.2230 166.7957 15.49325810  4962

JSON: /api/v1/satellites/68973 · /tle

For live sub-satellite position, see the globe view (requires WebGL).

§ Visibility from observer

Set your observer location to see the next 7 days of passes ≥ 10°. The values pass through the URL so the page stays shareable.

No JS? Fill the form by hand. The geolocation button needs JavaScript.